Lid_Strength_Index
-1 2 1 3 9 9 12 11 8 8 8 6 5 6 7 6 9 12 2 1 0 0 -1 -1 -1 -2 -1 -1 -1 -2 -2 -1 -1 -1 -1 -1 -1 -2 -2 -2 -2 -2 -2 -2 -2 -2 -2 -1 -1
0 2 2 5 11 13 12 9 9 8 6 5 5 6 7 8 4 4 3 0 -0 -0 -0 -1 -1 -1 -1 -2 -2 -1 -1 -1 -1 -1 -1 -1 -1 -1 -2 -2 -2 -2 -1 -1 -2 -2 -1 -1 -1
1 1 5 8 10 13 12 9 8 6 5 6 7 5 6 7 4 3 1 0 0 0 -1 -1 -1 -1 -1 -2 -2 -1 -1 -1 -1 -1 -1 -1 -1 -1 -2 -2 -2 -2 -1 -1 -2 -1 -1 -1 -1
3 3 5 10 12 9 9 8 6 7 6 5 6 8 5 3 3 2 0 0 1 0 -0 -1 -1 -1 -1 -2 -2 -1 -1 -1 -1 -1 -1 -1 -1 -1 -2 -2 -2 -3 -1 -1 -2 -1 -1 -1 -1
3 5 10 11 11 9 7 6 7 7 7 6 6 8 7 3 1 1 1 1 1 1 -0 -1 -1 -1 -1 -1 -1 -1 -1 -1 -1 -1 -1 -1 -1 -2 -2 -2 -2 -3 -1 -1 -1 -1 -1 -1 -1
5 6 11 12 11 8 7 6 7 6 6 7 7 7 7 2 2 2 1 1 0 1 -0 -1 0 -0 -1 -1 -1 -2 -2 -2 -2 -2 -2 -1 -2 -2 -2 -2 -2 -2 -2 -1 -1 -1 -1 -1 -1
6 8 11 10 10 9 7 6 7 7 6 7 6 8 5 4 2 1 1 1 1 0 0 -0 -1 -0 1 -0 -1 -1 -2 -2 -2 -2 -2 -2 -1 -2 -2 -2 -2 -2 -2 -1 -1 -1 -1 -0 -1
5 7 10 10 11 10 7 6 6 6 7 4 5 8 8 4 2 1 1 1 1 1 0 0 -0 -0 -1 -0 0 -0 -1 -1 -1 -1 -1 -1 -1 -0 -1 -1 -1 -3 -2 -2 -2 -2 -1 -1 -1
4 9 11 10 10 9 7 7 6 6 6 6 5 5 4 2 2 2 2 2 2 1 1 1 0 0 -0 -0 0 1 0 -0 -0 -0 0 0 -0 -0 0 0 -1 -2 -1 -1 -2 -2 -2 -2 -1
7 10 9 7 7 8 7 7 6 7 6 6 6 4 3 3 3 4 4 4 3 2 1 1 1 0 -0 -0 0 -0 -0 -0 -0 -0 -0 -0 0 0 -0 1 0 -0 0 -1 -2 -1 -1 0 0
7 10 7 7 6 6 6 7 6 7 8 7 6 5 4 4 5 4 4 4 4 3 2 1 1 1 0 0 0 0 -0 -0 -0 -0 0 -0 0 0 1 1 1 1 1 1 -0 0 0 1 1
9 7 6 6 6 6 7 6 7 6 7 5 5 5 5 4 5 5 5 4 4 3 2 1 1 1 1 0 -0 0 0 -0 -0 -0 -0 0 1 0 1 1 1 1 1 1 1 1 0 1 1
8 7 6 6 6 6 6 7 7 7 5 5 4 4 5 4 4 4 4 4 4 3 3 2 1 1 1 1 1 0 0 0 0 -0 0 -0 0 0 0 1 1 1 1 1 1 1 1 1 1
7 7 7 6 7 7 8 7 7 6 5 5 5 5 5 5 5 5 5 4 3 3 4 2 1 1 1 1 1 1 1 -0 0 0 0 0 0 -0 0 0 0 0 1 1 1 1 1 1 1
7 9 8 8 7 8 7 9 9 6 5 5 6 6 5 5 5 5 4 4 4 3 3 2 1 1 1 1 1 1 1 0 -0 -0 -0 -0 -0 1 0 1 0 0 0 1 1 1 1 1 1
9 10 12 9 7 7 9 14 9 7 7 7 6 7 7 5 4 4 4 4 3 3 3 3 2 1 1 1 1 1 1 1 1 -0 -0 -0 -0 -0 0 1 0 0 1 0 1 1 1 1 2
10 14 13 11 7 8 9 12 7 6 7 8 7 6 6 6 5 5 5 4 4 4 4 3 3 3 3 1 1 1 1 1 1 1 -0 -0 0 0 -0 0 1 0 0 1 1 1 2 2 1
13 13 12 12 9 9 10 10 8 7 7 7 7 7 7 6 6 5 5 5 5 5 4 4 3 2 1 2 1 1 1 1 1 1 0 0 -0 -0 0 1 1 1 1 1 1 1 1 1 1
10 12 13 11 9 10 11 10 9 8 8 8 8 8 7 6 6 5 5 6 6 6 6 5 4 3 2 2 2 2 2 2 1 1 0 0 1 0 0 1 1 0 1 1 1 1 1 1 1
10 11 12 10 9 10 10 11 9 8 8 8 8 8 7 7 6 6 7 7 7 7 7 7 6 5 5 4 3 2 2 2 3 2 4 3 1 1 1 1 0 0 1 1 1 2 2 2 1
11 12 12 12 10 9 11 13 11 9 8 8 8 9 9 9 8 8 9 9 9 9 9 8 8 7 6 4 4 1 1 4 5 5 5 4 3 5 5 4 3 3 2 2 1 1 1 3 1
13 9 10 11 13 16 12 18 13 11 10 9 9 10 10 10 9 9 10 10 10 10 9 9 9 8 7 6 4 4 4 6 5 6 6 4 5 7 7 6 5 4 2 4 3 2 2 2 3
11 9 10 11 13 14 13 16 14 11 12 11 10 10 10 10 10 10 11 10 11 11 11 11 10 10 10 9 8 8 8 8 8 8 8 7 7 7 8 6 6 6 5 5 4 4 3 2 2
8 10 10 11 13 20 15 15 16 14 12 12 10 10 10 11 11 11 11 11 12 12 12 12 12 11 11 11 11 10 10 11 11 10 10 9 8 8 9 8 8 7 7 7 6 6 4 4 4
10 13 19 20 20 20 15 16 16 12 11 11 11 11 11 11 11 12 12 13 13 14 13 12 13 13 12 12 12 12 11 11 12 12 11 11 10 10 10 9 9 8 8 7 7 7 6 6 6
12 13 18 21 21 19 16 19 16 12 10 10 10 10 11 11 11 12 13 13 14 14 14 14 13 13 13 13 13 13 13 12 12 12 12 11 11 11 10 10 10 9 9 8 8 7 7 7 7
12 15 11 16 19 20 18 16 13 11 11 10 11 11 11 11 12 12 13 13 14 15 14 14 14 14 14 13 13 14 13 13 13 12 12 12 12 11 11 11 11 11 10 9 9 8 9 8 8
10 10 16 16 24 24 19 18 17 14 12 11 11 11 11 11 11 12 13 13 14 14 15 15 15 15 14 14 14 13 14 13 13 13 13 13 13 12 12 12 11 11 11 10 10 10 10 10 10
12 13 12 13 17 20 22 20 14 13 12 12 11 10 11 11 12 13 13 14 14 15 15 15 15 15 15 14 14 14 14 14 13 14 14 14 13 13 13 12 12 12 11 11 11 11 11 11 11
10 12 12 17 18 17 18 18 11 11 11 10 10 9 10 10 11 12 13 14 14 15 15 15 15 15 15 14 14 14 14 14 15 14 14 13 13 13 13 13 13 12 12 12 13 12 12 12 12